Regional Weather Roundup
Issued by NWS Green Bay, WI

Home | Current Version | Previous Version | Text Only | Print | Product List | Glossary On
Versions: 1 2 3 4 5 6 7 8 9 10 11 12 13 14 15 16 17 18 19 20 21 22 23 24 25 26 27 28 29 30 31 32 33 34 35 36 37 38 39 40 41 42 43 44 45 46 47 48 49 50
000
ASUS43 KGRB 291459
RWRGRB

NORTH-CENTRAL AND NORTHEAST WISCONSIN REGIONAL WEATHER ROUNDUP
NATIONAL WEATHER SERVICE GREEN BAY WI
900 AM CST THU JAN 29 2015

WIZ005-009-010>012-018-019-291600-
NORTH CENTRAL WISCONSIN

CITY           SKY/WX    TMP DP  RH WIND       PRES   REMARKS
IRONWOOD       CLOUDY    28  25  86 NW20G26   29.94R
MANITOWISH WTR NOT AVBL
ARBOR VITAE    NOT AVBL
EAGLE RIVER    NOT AVBL
LAND O LAKES   NOT AVBL
RHINELANDER    CLOUDY    27  22  81 NW14G30   29.89R
PHILLIPS       NOT AVBL
ANTIGO         NOT AVBL
TOMAHAWK       NOT AVBL
MERRILL        NOT AVBL
$$

WIZ013-073-291600-
NORTHEAST WISCONSIN

CITY           SKY/WX    TMP DP  RH WIND       PRES   REMARKS
IRON MOUNTAIN  CLOUDY    29  23  78 N24G31    29.83R
MARINETTE      CLOUDY    30  25  80 N9        29.83R
$$

WIZ017-030-035>037-045-291600-
CENTRAL WISCONSIN

CITY           SKY/WX    TMP DP  RH WIND       PRES   REMARKS
MEDFORD        NOT AVBL
WAUSAU         CLOUDY    30  25  81 NW12G28   29.89R
MOSINEE        NOT AVBL
MARSHFIELD     CLOUDY    30  26  85 NW17      29.93R
WISC RAPIDS    CLOUDY    30  25  81 NW13      29.94R
STEVENS POINT  NOT AVBL
WAUPACA        NOT AVBL
SHAWANO        NOT AVBL
CLINTONVILLE   NOT AVBL
$$

WIZ038-039-048-051-291600-
FOX VALLEY

CITY           SKY/WX    TMP DP  RH WIND       PRES   REMARKS
NWS GREEN BAY  CLOUDY    31  25  78 NW15      29.86R HAZE
APPLETON       CLOUDY    30  25  80 NW14G24   29.87R
OSHKOSH        CLOUDY    31  25  78 NW14      29.87R HAZE
FOND DU LAC    CLOUDY    31  25  78 NW18G25   29.87R
$$

WIZ022-050-052-291600-
EAST CENTRAL WISCONSIN

CITY           SKY/WX    TMP DP  RH WIND       PRES   REMARKS
STURGEON BAY   CLOUDY    28  25  86 NW16      29.84R
MANITOWOC      NOT AVBL
SHEBOYGAN      CLOUDY    30  25  81 NW16G22   29.84R HAZE
$$

LMZ563-521-522-541>543-291600-
LAKESHORE

STATION/POSITION TIME  TEMP    WIND        PRES    VSBY  WAVE
                       AIR SEA DIR/SP/G                  HT/PER
                 (UTC) (F)     (DEG/KT/KT) (MB)    (MI)  (FT/S)
SHEBOYGAN LKSHOR 1400   31     320/ 15/ 18 1010.5R
KEWAUNEE LKSHORE 1400   30     320/ 10/ 15 1009.2R
NORTHPORT PIER   1400   30     310/ 12/ 15 1009.5R
SISTER BAY LKSHO 1400   29     340/  9/ 10   N/A
CHAMBERS ISLAND  1400   29     300/  7/ 11 1009.8R
MENOMINEE LKSHOR 1400   30     300/ 12     1010.8R
$$



USA.gov is the U.S. government's official web portal to all federal, state and local government web resources and services.